Regional Weather Roundup
Issued by NWS

Home | Current Version | Previous Version | Text Only | Print | Product List | Glossary On
Versions: 1 2 3 4 5 6 7 8 9 10 11 12 13 14 15 16 17 18 19 20 21 22 23 24 25 26 27 28 29 30 31 32 33 34 35 36 37 38 39 40 41 42 43 44 45 46 47 48 49 50
000
ASUS43 KFSD 200910
RWRSD

WEATHER ROUNDUP FOR SOUTH DAKOTA
NATIONAL WEATHER SERVICE SIOUX FALLS SD
400 AM CDT MON OCT 20 2014

NOTE: "FAIR" INDICATES FEW OR NO CLOUDS BELOW 12,000 FEET WITH NO
SIGNIFICANT WEATHER AND/OR OBSTRUCTIONS TO VISIBILITY.


SDZ001>005-009-010-012>017-201000-
NORTHWEST AND NORTH CENTRAL SOUTH DAKOTA

CITY           SKY/WX    TMP DP  RH WIND       PRES   REMARKS
BUFFALO          N/A     44  34  67 SE9       29.99S
FAITH            N/A     43  36  76 S12       30.06S
MOBRIDGE       PTCLDY    37  35  92 N5        30.04R
$$

SDZ012>016-024>037-041>051-057-063-072>074-201000-
SOUTHWEST AND SOUTH CENTRAL SOUTH DAKOTA

CITY           SKY/WX    TMP DP  RH WIND       PRES   REMARKS
RAPID CTY ARPT CLEAR     39  35  86 CALM      30.08S
PIERRE         CLEAR     41  35  79 CALM      30.06R
CUSTER         CLEAR     39  34  82 W3        30.16S
ELLSWORTH AFB  CLEAR     49  38  65 CALM      30.07F
PHILIP         CLEAR     35  32  88 W5        30.08S
PINE RIDGE     CLEAR     32  31  96 CALM      30.10F
SPEARFISH      FAIR      41  36  81 SE5       30.07S HAZE
WINNER         FAIR      49  36  61 SW5       30.07S
$$

SDZ004>011-016>023-039-040-201000-
NORTHEAST SOUTH DAKOTA

CITY           SKY/WX    TMP DP  RH WIND       PRES   REMARKS
ABERDEEN       CLEAR     36  32  85 CALM      30.03R
WATERTOWN      CLEAR     38  34  85 CALM      30.01S
SISSETON         N/A     43  36  76 NW7       29.98S
$$

SDZ017-020-022-023-036>040-048>070-201000-
SOUTHEAST SOUTH DAKOTA

CITY           SKY/WX    TMP DP  RH WIND       PRES   REMARKS
SIOUX FALLS    CLEAR     40  36  86 CALM      30.02R
HURON          CLEAR     36  32  85 NW3       30.04S
CHAMBERLAIN    CLEAR     39  34  84 W5        30.06S
MITCHELL       CLEAR     45  37  73 W6        30.05R
YANKTON        CLEAR     46  37  71 SW6       30.03R
$$

ABBREVIATIONS USED IN REMARKS
   TC - TEMPERATURE IN CELSIUS
  WCI - WIND CHILL INDEX
   HX - HEAT INDEX
  VSB - VISIBILITY



USA.gov is the U.S. government's official web portal to all federal, state and local government web resources and services.